Weather in Kyzyl-Yurt

Russia / Karachay-Cherkess Republic     44°10′52″N   41°52′15″E
temp.,
°C
wind,
m/s
gust,
m/s
humid.,
%
clouds,
%
prec.,
mm/h
press.,
hPa
HPBL,
m
12 may, wed
wed1200:00+5sse119278 0.0 101613
03:00+3ssw119095 0.0 101712
06:00+4ssw11766 0.0 101841
09:00+10ene23660 0.0 1016540
12:00+15ene55604 0.0 10141116
15:00+17e56585 0.0 10141173
18:00+14e610726 0.0 1013592
21:00+9ese2288100 0.0 101338
13 may, thu
thu1300:00+9s33903 0.0 101326
03:00+8ssw33600 0.0 101329
06:00+9s33640 0.0 101441
09:00+18se11480 0.0 1013331
12:00+21ne33494 0.0 1013700
15:00+22ene445337 0.0 1012977
18:00+19ene48755 0.0 1012367
21:00+14sse11895 0.0 101411
14 may, fri
fri1400:00+13s3388100 0.0 101332
03:00+12s4454100 0.0 101347
06:00+12s45591 0.0 101353
09:00+22s23470 0.0 1012234
12:00+27ene22390 0.0 1011669
15:00+27ene44461 0.0 10111078
18:00+23ene47764 0.0 1011224
21:00+17sse22885 0.0 101213
15 may, sat
sat1500:00+15s44750 0.0 101247
03:00+14sw445899 0.0 101346
06:00+15sw33645 0.0 101429
09:00+21wnw23662 0.0 1014470
12:00+24n33575 0.0 10141007
15:00+25ne56630 0.0 10131127
18:00+21n3482100 0.6 1014122
21:00+17ese119169 0.9 101311
16 may, sun
sun1600:00+16sse22925 0.0 101226
03:00+14s338833 0.0 101127
06:00+15s228626 0.0 101147
09:00+21e34715 0.0 1008570
12:00+25e676193 0.0 10061307
15:00+26e79646 0.0 10051317
18:00+22e6127290 0.0 1004549
21:00+18ese4977100 0.0 1004229